www.pogodaiklimat.ru

АРХИВ ПОГОДЫ в Ростове-на-Дону

Время (UTC), дата Ветер
(напр.,м/с)
 
Видим.   Явления Облачность Т
(С)
Тd
(С)
f
(%)
Тe
(С)
Тes
(С)
Комфортность P
(гПа)
Po
(гПа)
Тmin
(С)
Tmax
(С)
R
(мм)
S
(см)
12 17.07 В 6-10
{13}
10 км 9/1 1000 м
[Cu med, cong Ac trans Ci fib]
+34.2 +9.7 22 +33 +36 жарко 1008.5 1000.2
15 17.07 СВ 5
{10}
10 км 9/1 1000 м
[Cb calv Ac trans Ci]
+32.1 +10.6 27 +32 +32 жарко 1007.8 999.5 +35.5
18 17.07 СВ 5
{10}
10 км 9/1 1000 м
[Cb calv Ac trans]
+30.1 +8.4 26 +29 +29 жарко 1007.2 998.8
21 17.07 В 7-10
{11}
10 км 8/1 1000 м
[Cb calv Ac trans Ci fib]
+29.5 +5.9 23 +28 +28 жарко 1006.5 998.1
00 18.07 В 5
{11}
10 км 9/0
[Ac trans]
+25.7 +8.9 35 +26 +26 жарко 1006.8 998.3
03 18.07 В 6 10 км слабый ливневой дождь 9/4 1000 м
[Cb calv Ac trans]
+24.1 +10.3 42 +25 +25 комфорт 1006.8 998.3 +23.5 0.0
06 18.07 В 3 10 км слабый ливневой дождь 9/3 1000 м
[Cb calv Ac trans]
+21.7 +14.2 62 +25 +27 комфорт 1008.5 999.9 +21.7
09 18.07 СВ 3 10 км слабый ливневой дождь 10/4 300 м
[Cb calv Ac und]
+20.1 +17.0 82 +23 +26 комфорт 1009.7 1001.0
12 18.07 СВ 7-10
{11}
10 км {ливн. осадки} 9/3 1000 м
[Cb calv Ac trans]
+20.1 +15.2 73 +22 +23 комфорт 1008.3 999.6
15 18.07 В 4
{13}
10 км 9/3 1000 м
[Cb calv Ac trans]
+22.2 +15.8 67 +26 +27 душно 1007.8 999.2 +24.1 1
18 18.07 СВ 4
{13}
10 км 4/0
[Ac trans]
+20.6 +13.5 64 +23 +23 комфорт 1007.2 998.6
21 18.07 В 4 10 км 8/0
[Ac trans]
+20.1 +14.4 70 +22 +22 комфорт 1006.9 998.3
00 19.07 В 5 10 км зарница 9/3 1000 м
[Cb cap Ac trans]
+20.7 +15.7 73 +24 +24 комфорт 1007.4 998.8
03 19.07 В 5
{10}
10 км 6/1 1000 м
[Cb calv Ac trans Ci fib]
+20.8 +14.8 69 +24 +24 комфорт 1008.0 999.4 +19.3
06 19.07 В 7-12
{13}
10 км 6/1 1000 м
[Cb calv Ac trans Ci fib]
+24.8 +16.3 59 +28 +30 жарко 1008.1 999.6
09 19.07 В 5
{12}
10 км 9/4 1000 м
[Cb calv Ac trans Ci]
+26.0 +16.6 56 +30 +33 душно 1008.2 999.7
12 19.07 В 4
{12}
10 км 9/3 1000 м
[Cb calv Ac trans]
+29.3 +14.5 40 +31 +34 жарко 1008.0 999.6
15 19.07 СВ 6 10 км 9/4 1000 м
[Cb calv Ac trans]
+27.0 +16.1 51 +30 +31 душно 1007.6 999.2 +29.7
18 19.07 С 2 10 км 9/0
[Ac trans]
+23.4 +15.9 63 +28 +28 душно 1008.6 1000.0
21 19.07 СВ 5 10 км слабый ливневой дождь 10/4 1000 м
[Cb calv Ac As]
+20.7 +16.3 76 +24 +24 комфорт 1009.1 1000.5
00 20.07 В 4 10 км {ливн. осадки} 8/1 1000 м
[Cb calv Ac trans]
+21.2 +14.6 66 +24 +24 комфорт 1008.5 999.9
03 20.07 В 6 10 км 9/1 1000 м
[Cb calv Ac trans]
+20.9 +13.2 61 +23 +23 комфорт 1009.8 1001.2 +20.1 0.0
06 20.07 В 6 10 км 9/1 1000 м
[Cb calv Ac trans]
+22.6 +11.0 48 +25 +26 комфорт 1010.9 1002.3
09 20.07 В 4 10 км 6/0
[Ac trans]
+27.2 +11.4 37 +28 +36 жарко 1010.8 1002.3
12 20.07 В 7-10
{11}
10 км 6/0
[Ac trans Ci fib]
+29.7 +9.4 28 +29 +32 жарко 1009.8 1001.4
15 20.07 В 5
{10}
10 км 4/0
[Ac trans Ci fib]
+28.7 +7.3 26 +28 +29 жарко 1009.4 1001.0 +30.4
18 20.07 СВ 4
{10}
10 км 4/0
[Ac trans Ci fib]
+21.8 +5.5 35 +22 +22 комфорт 1010.4 1001.8
21 20.07 В 2 10 км 4/0
[Ac trans]
+20.9 +5.6 37 +22 +22 комфорт 1010.5 1001.8
00 21.07 В 4 10 км 3/0
[Ac trans]
+17.8 +6.0 46 +18 +18 по сезону 1010.1 1001.3
03 21.07 В 5 10 км 4/0
[Ac trans Ci fib]
+18.8 +8.6 51 +19 +19 прохладно 1009.7 1001.0 +16.2
06 21.07 В 4 10 км 6/0
[Ac trans Ci fib]
+24.6 +9.3 38 +25 +30 комфорт 1009.4 1000.9
09 21.07 В 5 10 км 4/3 1000 м
[Cu med, cong Ac trans]
+29.9 +6.0 22 +28 +34 жарко 1008.7 1000.3
12 21.07 СВ 3 10 км 3/3 1000 м
[Cu med, cong]
+30.9 +5.5 20 +29 +36 жарко 1007.7 999.3
15 21.07 В 3 10 км 6/0
[Ac trans Ci fib]
+28.5 +8.5 28 +28 +29 жарко 1007.6 999.2 +31.9
18 21.07 В 2 10 км 6/0
[Ac trans Ci fib]
+25.7 +6.9 30 +26 +26 жарко 1008.3 999.8
21 21.07 штиль 0 10 км 5/0
[Ac trans]
+20.2 +11.2 56 +22 +22 комфорт 1008.1 999.4
00 22.07 З 1 10 км 8/0
[Ac trans Ci]
+20.9 +11.0 53 +24 +24 комфорт 1007.8 999.2
03 22.07 С 7 10 км в посл. час ливневой дождь 9/4 1000 м
[Cb calv Ac trans]
+21.6 +11.9 54 +24 +24 комфорт 1008.1 999.5 +19.0 0.0
06 22.07 В 3 10 км в посл. час ливневой дождь 9/3 1000 м
[Cb calv Ac trans]
+19.9 +16.4 80 +23 +25 комфорт 1009.3 1000.6 +18.4
09 22.07 Ю 4 10 км 6/1 1000 м
[Cu hum Ac trans]
+25.8 +14.3 49 +28 +35 жарко 1010.0 1001.5
12 22.07 З 5 10 км 8/4 1000 м
[Cb calv Ac trans Ci fib]
+29.3 +10.1 30 +29 +32 жарко 1009.4 1001.0
15 22.07 С 7 10 км в посл. час гроза 9/4 1000 м
[Cb calv Ac trans]
+22.9 +15.9 65 +27 +27 душно 1010.8 1002.2 +29.7 0.0
18 22.07 В 3 10 км {гроза} 5/0
[Ac trans]
+21.0 +15.9 73 +25 +25 комфорт 1011.7 1003.0
21 22.07 В 2 10 км 4/0
[Ac trans Ci fib]
+18.6 +14.6 78 +20 +20 по сезону 1012.2 1003.5
00 23.07 СВ 3 10 км 3/0
[Ci fib]
+16.1 +14.1 88 +16 +16 прохладно 1012.6 1003.8
03 23.07 СВ 3 10 км 1/0
[Ac trans]
+17.5 +14.3 81 +18 +18 прохладно 1013.1 1004.3 +15.8
06 23.07 В 5 10 км ясно +23.6 +14.9 58 +26 +31 жарко 1013.2 1004.6
09 23.07 В 4 10 км ясно +29.3 +12.0 34 +30 +42 жарко 1012.7 1004.3
12 23.07 В 3 10 км 3/3 1000 м
[Cu med, cong]
+31.2 +12.1 31 +32 +39 жарко 1011.6 1003.2
15 23.07 СВ 4 10 км 3/3 1000 м
[Cu hum]
+30.5 +11.4 31 +31 +32 жарко 1010.6 1002.2 +31.6
18 23.07 СВ 4 10 км ясно +26.1 +10.2 37 +27 +27 жарко 1010.9 1002.4
21 23.07 СВ 5 10 км 4/0
[Ac trans]
+23.7 +10.0 42 +25 +25 комфорт 1010.9 1002.3
00 24.07 В 8-13
{11}
10 км 3/0
[Ac trans]
+24.0 +9.4 40 +25 +25 комфорт 1009.6 1001.0
03 24.07 В 7-10
{13}
10 км 6/0
[Ac trans]
+21.2 +10.9 52 +23 +23 комфорт 1009.5 1000.9 +21.2
06 24.07 В 7-10
{13}
10 км 6/1 1000 м
[Cb calv Ac trans]
+26.6 +12.3 41 +28 +30 жарко 1009.6 1001.1
09 24.07 В 6
{10}
10 км 3/0
[Ac trans]
+32.6 +10.0 25 +32 +38 жарко 1009.0 1000.7

 

Обсудить погоду в Ростове-на-Дону на МЕТЕОФОРУМЕ

 

Местоположение метеостанции Ростов-на-Дону (Ростовская область, Россия): широта 47.27 долгота 39.82 высота над уровнем моря 75 м.

В архиве по умолчанию представлена погода в Ростове-на-Дону за последнюю неделю. Архивные данные за месяц целиком и за предыдущие месяцы, начиная с января 2011 года, Вы можете получить, выбрав интересующий диапазон дат из раскрывающегося списка и нажав кнопку "Ввод!".

Внимание! Время в таблицах - всемирное. Для получения местного времени необходимо прибавить поправку, которая в Ростове-на-Дону равна 4 ч.

Ветер - указаны скорость ветра в м/с - средняя за 10 мин, порывы в срок и между сроками (в фигурных скобках) и направление, откуда дует ветер: С - северный, СВ - северо-восточный, В - восточный, ЮВ - юго-восточный, Ю - южный, ЮЗ - юго-западный, З - западный, СЗ - северо-западный.
Видимость - горизонтальная дальность видимости в метрах или километрах. При видимости от 1 до 10 км при отсутствии осадков обычно наблюдается дымка, при ухудшении видимости до 1 км и менее - туман. В сухую погоду видимость может ухудшаться дымом, пылью или мглою.
Явления - указаны атсосферные явления, наблюдавшиеся в срок или в последний час перед сроком; фигурными скобками обозначены явления, наблюдавшиеся между сроками (за 1-3 часа до срока); квадратными скобками обозначены град или гололедные отложения с указанием их диаметра в мм.
Облачность - указаны через наклонную черту общая и нижняя облачность в баллах и высота нижней границы облаков в метрах; квадратными скобками обозначены формы облаков: Ci - перистые, Cs - перисто-слоистые, Cc - перисто-кучевые, Ac - высококучевые, As - высокослоистые, Sc - слоисто-кучевые, Ns - слоисто-дождевые, Cu - кучевые, Cb - кучево-дождевые. Подробнее классификацию облаков см. в Атласе облаков (PDF).
T - Температура воздуха - температура, измеренная на высоте 2 м над землей.
Td - Температура точки росы - температура, при понижении до которой содержащийся в воздухе водяной пар достигнет насыщения.
f - Относительная влажность воздуха - влажноcть воздуха, измеренная на высоте 2 м над землей.
Te - Эффективная температура - температура, которую ощущает одетый по сезону человек в тени. Характеристика душности погоды. При расчете учитывается влияние влажности воздуха и скорости ветра на теплоощущения человека.
Tes - Эффективная температура на солнце - температура, которую ощущает человек, с поправкой на солнечный нагрев. Характеристика знойности погоды. Зависит от высоты солнца над горизонтом, облачности и скорости ветра. Ночью, в пасмурную погоду, а также при ветре 12 м/с и более поправка равна нулю.
P - Атмосферное давление - приведенное к уровню моря атмосферное давление.
Po - Атмосферное давление - измеренное на уровне метеостанции атмосферное давление.
Tmin - Минимальная температура - минимум температуры воздуха на высоте 2 м над землей.
Tmax - Максимальная температура - максимум температуры воздуха на высоте 2 м над землей.
R - Количество осадков - Количество выпавших осадков, мм.
S - Снежный покров - Высота снежного покрова, см.